Location: Emmingen
(47.9299°N, 8.8519°E)
Time: 20:58:11
(UTC+00:00)

Daily predictions for brighter satellites

Satellite Brightness Start Highest point End
(mag) Time Altitude Azimuth Time Altitude Azimuth Time Altitude Azimuth
Cosmos 2233 Rocket 4.3 17:39:25 10° SSW 17:45:38 77° W 17:51:50 10° N
COSMO-SKYMED 1 2.7 17:45:25 10° NNE 17:49:47 82° WNW 17:54:08 10° SSW
Nadezhda 4 Rocket 4.4 17:46:47 10° N 17:52:32 41° ENE 17:58:16 10° SE
Ariane Rocket 4.2 17:49:27 10° ESE 17:53:25 24° ENE 17:57:23 10° N
Cosmos 1689 Rocket 3.5 17:50:44 10° N 17:53:35 43° WNW 17:56:25 10° SW
H-2A R/B 2.3 17:49:20 10° SE 17:54:07 46° ENE 17:59:02 10° N
SJ 16-02 4.0 17:52:13 10° WSW 17:55:38 22° NW 17:59:05 10° N
Exosat Rocket 4.5 17:53:37 10° SSE 17:58:00 26° ESE 18:02:07 10° NE
Cosmos 2263 Rocket 3.3 17:53:32 10° SW 17:58:54 48° NW 18:04:20 10° NNE
USA 116 3.9 17:56:26 10° NNE 18:00:00 47° E 18:03:59 10° S
COSMOS 2406 4.4 17:56:51 10° N 18:01:29 25° NE 18:05:51 11° E
Cosmos 1939 Rocket 4.1 17:58:06 10° S 18:02:07 49° W 18:06:10 10° NNW
Cosmos 1844 Rocket 2.9 17:58:00 10° S 18:03:19 48° ESE 18:08:41 10° NE
Cosmos 1707 2.7 18:01:08 10° N 18:05:00 87° E 18:08:49 10° S
Cosmos 372 Rocket 4.0 17:59:55 10° SSW 18:05:09 85° ESE 18:10:25 10° NNE
Cosmos 1626 4.0 18:04:17 10° NE 18:06:16 14° ENE 18:07:28 12° E
NOSS 3-2 (C) 4.1 17:59:22 10° NW 18:06:45 71° NE 18:15:10 10° SE
Cosmos 2278 Rocket4.118:10:00ENE18:10:00ENE18:03:58SE
Cosmos 1844 4.0 18:05:24 10° S 18:10:46 45° ESE 18:16:07 10° NE
Cosmos 2034 Rocket 4.2 18:05:04 10° SSE 18:11:09 50° E 18:17:13 10° NNE
ISS -3.3 18:08:16 10° W 18:11:38 60° NNW 18:14:49 11° ENE
NOSS 3-4 (A) 4.2 18:07:22 10° S 18:12:15 27° ESE 18:17:20 10° ENE
NOSS 3-4 (C) 4.2 18:07:30 10° S 18:12:21 27° ESE 18:17:26 10° ENE
Meteor 2-5 Rocket 4.5 18:07:36 10° N 18:12:43 33° ENE 18:17:53 10° SE
USA 186 3.0 18:11:03 13° ESE 18:13:09 24° ENE 18:15:51 10° NNE
Meteor 1-12 Rocket 4.3 18:08:39 10° S 18:14:30 75° E 18:20:16 10° NNE
Lacrosse 4 Rocket 3.5 18:12:48 10° N 18:14:31 12° NE 18:16:14 10° ENE
Cosmos 1300 Rocket 3.5 18:15:23 10° S 18:19:48 80° E 18:24:16 10° NNE
Okean 1 Rocket 3.8 18:19:09 10° SSE 18:23:06 31° E 18:27:04 10° NNE
Sich 1 Rocket 4.3 18:19:43 10° SSW 18:24:11 60° WNW 18:28:43 10° N
CENTAUR R/B 3.2 18:17:50 10° NW 18:25:51 83° NE 18:34:42 10° SE
Cosmos 2298 Rocket 4.0 18:21:06 10° SSW 18:26:26 88° ESE 18:31:49 10° NNE
Resurs 01 Rocket 3.4 18:25:51 14° ENE 18:26:48 15° ENE 18:29:13 10° NNE
Cosmos 1833 Rocket 3.8 18:22:14 10° NNW 18:27:04 28° NE 18:30:12 17° E
CSL-04 Debris 4.4 18:24:52 10° S 18:30:14 74° WSW 18:35:40 10° NNW
CSL-04 Rocket 3.9 18:26:45 10° S 18:32:12 75° WSW 18:37:45 10° NNW
Cosmos 1766 4.0 18:30:35 10° SSE 18:34:05 31° E 18:37:37 10° NNE
Okean 2 Rocket 3.4 18:29:53 10° SSW 18:34:22 72° W 18:38:51 10° N
Cosmos 1025 Rocket 3.4 18:30:02 10° NNW 18:34:24 68° W 18:38:45 10° S
ATLAS 2AS CENTAUR R/B 3.4 18:27:22 10° S 18:34:39 42° ESE 18:41:57 10° NE
YAOGAN 1 3.9 18:30:47 10° S 18:34:54 43° W 18:39:03 10° NNW
ATLAS 3B R/B 3.2 18:31:35 10° NW 18:38:05 44° NE 18:42:35 20° E
Cosmos 1634 Rocket 4.4 18:33:23 10° SSE 18:38:57 37° E 18:44:35 10° NNE
Abrixas rocket 2.2 18:38:32 10° W 18:41:19 52° SSW 18:42:11 35° SE
SPOT 3 Rocket 4.5 18:40:10 22° E 18:42:14 29° ENE 18:46:37 10° N
CREW DRAGON DEMO-1 DEB 3.0 18:40:12 10° WNW 18:43:12 61° SSW 18:44:16 34° SE
Cosmos 1536 Rocket 3.8 18:39:44 10° NNW 18:44:11 73° W 18:48:38 10° S
Cosmos 1125 Rocket 3.5 18:41:46 10° SSW 18:47:04 83° ESE 18:52:25 10° NNE
Resurs 1-3 4.4 18:48:54 28° E 18:49:57 31° ENE 18:53:50 10° N
SJ-6B 2.9 18:48:31 29° SE 18:50:05 51° ENE 18:53:47 10° N
Cosmos 1892 Rocket 4.4 18:47:05 10° N 18:50:54 29° ENE 18:51:25 28° E
CZ-4 R/B 3.9 18:49:16 10° SSW 18:52:39 23° W 18:56:03 10° NW
Cosmos 2195 Rocket 4.4 18:48:16 10° N 18:54:30 64° ENE 19:00:07 12° SSE
CZ-2C R/B 4.3 18:49:31 10° S 18:54:39 45° W 19:00:06 10° NNW
Cosmos 1674 2.8 18:52:43 10° NNW 18:56:35 74° W 19:00:17 11° S
Cosmos 2026 Rocket 4.1 18:51:03 10° N 18:57:22 59° ENE 19:02:17 17° SSE
Cosmos 1092 Rocket 3.9 18:51:24 10° N 18:57:35 75° E 19:03:47 10° SSE
Cosmos 2285 Rocket 3.9 18:51:30 10° SSW 18:57:48 79° ESE 19:04:11 10° NNE
MOS 1 Rocket 3.6 18:58:26 10° N 19:02:47 62° WNW 19:07:00 10° SSW
FREGAT/IRIS 3.2 19:04:41 39° N 19:04:41 39° N 19:06:29 10° N
Cosmos 1428 Rocket 4.5 18:59:42 10° N 19:05:56 64° ENE 19:10:06 21° SSE
TSX-5 3.9 19:05:08 10° SSW 19:08:57 66° ESE 19:13:54 10° NE
ARGOS 3.8 19:04:55 10° S 19:10:10 55° W 19:15:28 10° NNW
CZ-2C R/B 2.6 19:07:28 10° NNE 19:13:04 74° ESE 19:18:41 10° S
Cosmos 1340 Rocket 3.1 19:15:11 46° ENE 19:15:11 46° ENE 19:18:26 10° NNE
Cosmos 2279 Rocket 4.3 19:12:59 30° SE 19:15:27 44° E 19:21:20 10° NNE
Cosmos 1733 3.0 19:13:48 22° S 19:16:14 85° E 19:20:04 10° N
MOS 1 4.3 19:13:05 18° SSE 19:17:30 87° WSW 19:23:15 10° NNW
GRACE-FO 1 4.4 19:14:52 10° N 19:18:37 84° E 19:19:03 67° SSE
GRACE-FO 2 4.4 19:15:15 10° N 19:18:59 85° E 19:19:26 67° SSE
Lacrosse 5 rocket 2.9 19:15:32 10° NW 19:19:27 30° NNE 19:20:43 26° NE
Cosmos 2082 Rocket 2.8 19:15:03 10° NNW 19:20:17 38° NE 19:21:17 35° ENE
Cosmos 2098 Rocket 4.4 19:14:17 10° N 19:20:31 37° ENE 19:21:19 36° E
DMSP B5D2-2 4.0 19:17:35 10° NNE 19:22:54 77° ESE 19:28:11 10° S
BREEZE-M DEB (TANK) 4.3 19:20:01 10° W 19:23:28 36° SSW 19:27:36 22° SSE
BREEZE-M R/B 3.3 19:15:10 10° WSW 19:23:57 86° S 19:24:25 66° E
OBJECT-B 1.7 19:28:48 43° N 19:28:48 43° N 19:31:07 10° N
Cosmos 1805 4.1 19:24:24 10° SSW 19:28:11 49° WNW 19:32:02 10° N
Cosmos 2142 Rocket 4.4 19:24:37 19° S 19:29:05 64° E 19:35:14 10° NNE
Ariane Rocket 3.6 19:28:06 16° S 19:32:01 56° W 19:37:02 10° NNW
Milstar 3 Cent rocket 4.4 19:31:34 10° SSW 19:32:26 10° S 19:32:39 10° S
H-2A R/B 4.1 19:29:37 10° SSW 19:33:46 26° W 19:38:03 10° NW
Terra 4.1 19:42:51 13° NE 19:42:51 13° NE 19:43:51 10° NNE
Cosmos 1626 2.8 19:38:14 10° NNW 19:41:51 50° W 19:42:02 49° WSW
Okean 1-7 Rocket 3.7 19:37:41 10° N 19:41:51 65° NE 19:41:51 65° NE
USA 186 4.1 19:42:34 18° SW 19:43:47 22° W 19:46:27 10° NW
Cosmos 1455 Rocket 4.3 19:47:18 31° NNE 19:47:18 31° NNE 19:49:40 10° NNE
COSMOS 2406 3.3 19:40:42 10° NNW 19:46:21 71° WSW 19:47:55 48° S
Cosmos 1844 Rocket 4.4 19:42:24 10° WSW 19:47:24 33° NW 19:52:27 10° NNE
SPOT 1/Viking Rocket 4.5 19:48:44 33° NE 19:48:44 33° NE 19:52:30 10° N
ISS -2.0 19:45:32 10° WNW 19:47:47 32° NW 19:47:47 32° NW
Cosmos 2278 Rocket 2.1 19:45:30 10° SSW 19:51:33 67° E 19:56:45 10° NNE
Lacrosse 4 Rocket 2.3 19:49:58 10° NNW 19:52:52 42° N 19:52:52 42° N
Meteor 1-24 Rocket 4.5 19:53:14 10° NNW 19:58:37 50° W 20:01:37 26° SSW
Cosmos 909 Rocket 4.0 19:52:41 10° NW 19:59:14 68° NE 19:59:55 63° E
Cosmos 2266 Rocket 4.0 19:54:58 10° N 20:00:34 56° ENE 20:00:34 56° ENE
NOSS 3-4 (A) 3.7 19:56:40 10° SW 20:02:34 66° NW 20:08:58 10° NE
NOSS 3-4 (C) 3.7 19:56:46 10° SW 20:02:40 67° NW 20:09:04 10° NE
Resurs 01 Rocket 2.0 20:03:26 61° NW 20:03:26 61° NW 20:07:11 10° NNW
Meteor 2-19 Rocket 4.3 19:56:43 10° N 20:02:51 89° W 20:03:47 66° S
Cosmos 1833 Rocket 2.9 20:05:50 10° NNW 20:11:25 61° WSW 20:11:54 59° SW
Cosmos 2251 Rocket 3.7 20:08:55 10° NNW 20:13:44 71° NNW 20:13:44 71° NNW
ERS-1 Rocket 4.4 20:17:40 29° NNE 20:17:40 29° NNE 20:20:29 10° N
ARIANE 5 R/B 4.0 20:20:05 34° NNW 20:20:05 34° NNW 20:22:35 10° NNW
SPOT 3 Rocket 4.3 20:20:50 43° WSW 20:21:26 44° W 20:26:23 10° NNW
ATLAS 2AS CENTAUR R/B 3.4 20:17:36 10° SW 20:25:30 63° NW 20:33:16 10° NE
ATLAS 3B R/B 3.0 20:22:19 10° NW 20:29:01 57° WSW 20:29:50 54° SSW
SPOT 5 4.3 20:33:48 33° NNE 20:33:48 33° NNE 20:36:58 10° N
Cosmos 1655 Rocket 4.2 20:31:20 10° NNW 20:37:32 64° W 20:37:50 63° WSW
Lacrosse 5 rocket 3.8 20:54:40 10° NW 20:56:20 22° NW 20:56:20 22° NW
Cosmos 2082 Rocket 3.5 20:59:11 10° NW 21:03:08 35° WNW 21:03:08 35° WNW
Terra 4.1 21:21:45 20° NNW 21:21:45 20° NNW 21:23:14 10° NNW
Cosmos 2278 Rocket 4.1 21:33:01 18° W 21:35:44 25° NW 21:40:24 10° N
CZ-4C R/B 4.5 22:45:17 22° NNE 22:45:17 22° NNE 22:48:17 10° NE
SL-16 R/B 4.3 23:50:37 26° NNE 23:50:37 26° NNE 23:53:58 10° N
